RH
92 84 91 87 84 74 83 78 81 76 74 62 59 76 50 36 22 18 13 12 12 10 12 12 12 16 14 36 36 25 25 19 15 38 36 30 25 20 20 16 14 12 10 9 9 9 9
83 86 88 89 92 91 86 90 87 94 92 88 86 81 82 87 51 30 16 15 14 12 10 10 12 17 52 48 19 23 20 15 12 17 35 29 24 20 18 16 15 12 9 8 9 9 9
91 90 85 86 86 89 90 86 87 88 93 88 85 93 79 72 68 49 18 16 13 10 9 11 15 25 82 29 14 20 27 20 14 14 16 29 24 20 17 17 14 12 13 11 10 9 10
87 92 89 88 84 85 83 87 88 83 82 85 87 92 84 64 59 35 12 10 8 10 11 15 22 48 63 18 26 26 29 28 30 20 14 14 24 26 26 18 16 15 14 17 11 10 9
86 88 89 89 90 89 80 84 87 91 84 81 85 89 91 68 42 22 11 7 7 34 40 46 37 76 48 29 32 24 24 27 25 22 17 17 17 30 26 26 26 19 21 17 14 9 10
85 86 85 83 91 92 80 79 83 87 84 92 93 77 84 77 53 20 12 11 27 44 58 74 78 56 46 30 24 28 28 40 33 30 28 19 17 30 28 29 39 28 20 17 17 12 11
89 82 87 78 84 81 79 87 93 89 86 88 89 80 81 76 62 22 41 60 41 54 66 38 32 38 30 26 22 21 26 32 38 36 36 21 29 33 28 25 25 22 20 18 13 11 13
90 89 80 89 83 88 89 83 81 82 81 82 87 79 86 72 52 32 71 74 58 66 62 51 43 37 32 29 28 24 25 37 35 43 34 40 37 33 24 22 22 23 26 23 15 12 13
79 86 88 82 85 80 83 88 77 85 88 81 81 82 84 76 37 63 80 61 60 65 64 40 26 24 24 29 28 27 20 31 36 39 45 65 43 27 31 19 25 25 26 25 20 14 13
73 79 88 87 87 83 75 79 88 90 87 80 82 87 80 64 66 85 62 59 62 73 71 30 30 29 34 33 29 24 22 25 50 53 44 80 66 34 49 44 20 28 21 21 20 21 25
91 84 82 81 80 81 75 84 99 92 85 75 80 83 89 70 62 71 59 65 67 76 63 23 22 31 29 28 26 25 23 24 41 51 66 66 66 53 53 43 23 28 27 31 21 22 24
87 95 93 92 87 70 72 76 75 75 76 81 85 75 74 73 77 75 69 78 81 94 55 20 23 28 29 28 25 28 24 29 40 41 46 50 46 59 62 46 30 26 32 44 29 26 35
86 80 74 70 68 69 80 77 75 77 76 88 90 75 71 89 79 91 86 79 84 59 10 10 15 19 21 18 12 24 31 36 42 67 60 56 52 55 52 59 38 35 59 76 56 44 43
79 83 81 78 79 76 86 81 84 83 95 98 90 80 80 80 79 77 82 70 76 21 20 10 16 13 17 10 9 24 31 38 32 46 54 76 81 56 55 52 55 38 50 49 64 53 38
92 92 88 78 76 72 78 81 84 92 98 99 86 90 89 81 73 80 97 88 39 25 14 11 10 22 19 8 19 21 34 33 32 35 65 71 63 42 48 49 53 53 47 32 39 40 50
95 91 88 80 75 71 74 89 85 88 95 98 100 94 84 64 69 84 96 77 39 22 17 22 27 19 16 14 27 28 40 57 62 43 34 54 90 48 49 43 55 56 42 57 36 60 81
78 78 77 78 72 73 67 75 76 87 90 96 99 95 62 62 78 94 94 64 39 31 27 22 27 27 20 19 20 23 38 82 56 52 45 49 84 60 64 79 66 53 41 42 34 33 55
82 73 72 73 76 70 68 75 83 84 98 100 98 91 53 69 95 94 92 57 39 29 24 23 24 27 30 29 29 32 32 65 53 49 59 63 71 67 50 32 46 41 47 39 52 53 36
78 76 71 68 75 76 75 70 81 95 98 97 97 59 60 100 90 81 56 49 41 35 28 27 28 24 23 26 31 30 33 50 55 63 73 66 71 62 55 39 59 62 53 50 45 52 58
77 77 74 75 75 70 77 78 78 83 94 99 99 83 53 91 77 64 57 57 44 34 27 27 26 24 27 25 23 43 49 52 52 51 73 70 69 69 67 69 77 68 48 45 51 78 64
83 82 78 74 81 77 73 79 90 83 86 99 99 81 75 74 75 63 59 77 48 39 27 27 29 28 28 42 30 41 28 40 53 63 58 80 100 91 84 69 66 72 55 51 52 48 52
85 82 83 81 81 79 74 74 89 93 96 99 99 65 51 85 63 50 47 50 47 48 37 36 35 26 24 29 29 38 30 37 54 50 50 64 87 80 70 54 57 93 48 47 55 46 36
86 83 78 80 84 83 78 68 78 84 96 99 97 83 71 68 60 59 71 50 35 32 36 48 46 45 44 35 41 47 46 60 57 53 58 55 76 98 93 87 74 62 58 51 43 35 39
85 90 88 88 91 99 88 73 68 80 81 99 96 74 75 75 51 56 49 46 49 39 38 27 32 45 49 61 51 46 42 38 42 46 39 52 67 89 95 86 85 53 56 46 51 56 52
98 96 94 93 98 97 100 93 70 73 83 97 85 99 82 80 47 39 37 45 54 45 46 43 40 69 79 59 56 55 54 55 49 40 41 46 55 82 97 85 79 51 67 76 49 73 66
98 98 93 90 98 99 100 99 93 69 76 82 94 94 97 99 60 38 36 36 50 53 49 51 73 88 75 78 88 75 59 47 53 46 36 40 52 69 86 87 91 56 62 68 72 99 57
91 96 91 86 88 94 98 99 96 83 71 80 94 91 100 96 68 71 69 68 48 39 52 58 90 87 82 71 80 87 64 43 57 55 58 61 66 76 77 88 48 35 57 66 88 87 62
91 93 93 86 86 90 98 99 96 92 77 77 73 89 91 97 75 63 61 74 76 64 82 82 95 86 93 91 71 63 64 57 52 46 52 59 69 75 62 65 67 46 51 60 66 63 50
96 96 95 93 91 93 99 100 99 97 94 87 94 85 97 97 72 85 80 73 73 73 100 99 97 96 68 75 64 92 73 78 57 58 39 56 46 57 45 50 54 55 56 56 57 58 59
Wind_Speed
11 11 14 14 15 13 13 13 16 17 17 16 17 17 19 19 19 20 21 21 21 21 21 22 23 24 22 7 26 17 26 18 14 8 9 15 22 27 24 24 28 27 25 30 30 30 25
15 13 11 12 15 15 15 16 15 17 20 20 18 15 16 21 22 22 22 23 23 22 21 21 22 21 14 17 9 11 12 12 10 11 12 15 22 24 30 28 24 30 29 29 30 27 26
14 15 15 15 14 13 16 18 18 17 21 23 20 19 19 20 23 24 24 24 24 23 22 22 21 17 15 34 15 19 17 17 14 14 14 14 18 24 23 24 31 32 26 22 22 23 22
13 14 16 17 19 19 18 19 21 21 23 25 23 20 21 22 24 25 24 25 23 21 21 19 16 9 13 16 15 19 17 20 21 17 17 17 18 20 21 28 26 24 22 21 22 22 23
16 18 17 16 17 19 19 21 20 23 25 22 22 21 22 23 24 25 25 25 18 16 16 15 9 6 12 7 8 8 9 12 14 17 14 12 16 15 18 17 16 17 19 23 24 23 21
16 18 19 18 16 19 22 18 21 23 24 17 22 22 20 23 23 22 24 23 12 15 9 7 10 9 18 9 5 10 8 5 9 13 12 12 12 12 17 15 17 19 21 21 22 20 24
18 17 17 14 17 19 16 17 21 22 25 20 21 20 19 23 22 18 18 23 9 2 9 17 12 16 31 21 23 16 13 9 9 9 14 9 12 18 23 21 22 20 22 23 21 20 18
19 20 19 18 19 19 17 20 23 25 25 20 22 17 20 21 18 12 8 10 7 10 16 25 29 29 26 25 26 25 11 7 13 13 14 9 21 19 21 21 22 22 24 25 23 12 8
20 20 21 19 21 21 22 19 18 20 20 21 20 18 19 19 13 5 8 11 10 13 8 18 10 12 9 8 15 19 20 14 14 13 13 19 16 17 22 28 24 22 23 22 24 20 18
19 20 21 22 22 21 22 21 21 19 20 21 18 18 18 17 11 7 10 4 10 12 5 7 10 6 7 3 6 4 18 16 2 8 10 8 15 18 18 29 23 22 21 25 24 18 14
19 20 22 23 23 22 23 23 20 20 20 21 18 18 16 13 15 12 12 11 10 8 5 11 11 7 5 7 7 6 11 17 11 7 5 5 10 21 24 25 21 23 15 23 21 18 17
21 19 19 22 20 21 23 24 28 29 25 21 18 18 18 13 14 10 13 9 7 4 8 9 10 9 11 17 13 9 12 9 3 10 14 15 15 9 13 22 20 17 18 23 21 15 16
21 26 26 26 27 28 25 25 21 21 22 22 17 19 21 14 18 11 3 9 5 6 3 9 7 3 6 10 12 12 11 14 8 4 10 14 25 18 20 20 16 22 10 8 8 13 12
20 20 21 21 23 23 22 23 24 25 24 18 18 18 19 18 15 13 8 5 10 8 15 0 5 7 13 15 13 5 11 12 16 10 8 5 4 18 11 19 11 17 20 9 7 8 12
22 23 23 23 24 23 22 24 21 24 17 16 16 18 21 17 15 15 12 10 6 15 16 14 9 7 16 15 5 9 16 13 9 15 7 4 5 6 17 10 8 12 19 25 13 9 6
21 20 21 22 24 23 22 24 25 23 23 14 15 18 25 18 17 19 10 17 18 14 10 6 6 7 12 12 3 1 1 2 3 4 12 4 8 12 17 15 19 22 19 15 10 7 6
22 22 21 22 22 23 22 23 23 26 19 18 15 10 15 18 21 15 11 18 18 27 19 8 9 14 16 11 11 7 2 6 4 3 5 7 7 3 7 7 18 11 15 14 12 13 6
22 24 24 23 24 22 22 23 20 19 16 17 20 6 12 25 13 5 10 18 25 18 13 13 12 13 15 16 12 10 9 6 7 5 3 5 5 9 19 16 20 17 20 18 9 19 12
26 25 24 23 23 23 24 23 22 18 20 20 9 18 19 16 8 13 14 22 23 21 19 13 16 15 16 16 15 9 14 10 7 4 5 6 5 6 9 10 16 16 19 19 12 10 8
25 24 23 24 23 22 22 21 23 22 20 20 4 4 19 16 18 14 18 18 19 26 20 19 16 17 13 16 17 7 5 7 8 4 8 5 6 9 10 9 8 14 22 22 17 4 7
27 27 26 24 24 22 22 20 19 22 21 18 6 6 6 8 12 16 18 7 16 18 19 19 15 19 16 15 14 16 18 11 11 9 3 3 5 8 13 16 16 14 16 21 22 19 15
27 27 26 26 25 23 21 21 19 14 17 21 5 6 14 9 14 16 17 18 19 14 17 16 16 18 19 17 14 14 15 10 6 8 3 3 4 11 10 15 15 16 12 14 11 15 15
27 27 28 29 28 25 22 22 22 20 22 19 19 16 13 9 10 11 10 19 19 18 15 22 10 16 12 12 7 8 16 4 13 7 5 3 1 4 4 13 7 9 12 10 10 10 8
30 30 30 29 29 26 27 24 23 22 28 26 14 16 11 12 12 12 15 12 12 17 17 17 15 12 12 8 6 14 14 17 16 14 12 7 5 2 4 10 4 9 12 12 4 8 8
30 30 29 29 30 30 30 29 27 26 27 29 27 16 10 10 16 17 17 8 17 12 10 14 17 4 6 4 3 6 10 14 19 17 16 12 6 2 3 4 6 4 2 9 12 5 5
29 26 26 26 25 24 25 30 32 30 29 29 28 26 17 5 12 20 15 18 10 10 10 14 1 6 6 3 1 8 7 8 9 8 20 16 11 6 4 4 1 3 6 17 9 3 6
28 28 27 25 23 21 19 28 31 32 33 33 26 26 21 13 26 18 12 9 14 9 8 4 6 5 5 2 2 4 9 9 7 8 19 14 12 11 7 4 5 6 14 21 2 3 6
32 31 27 27 25 22 22 22 31 32 36 36 37 26 28 13 24 20 19 17 17 8 4 4 6 3 3 2 3 6 5 3 5 7 15 12 10 7 9 7 6 4 8 2 8 10 9
32 32 29 29 28 27 24 24 24 35 39 37 31 31 25 21 11 8 20 27 25 23 4 3 4 4 2 5 4 3 4 2 6 2 14 8 8 5 8 6 13 22 20 18 19 17 16
Wind_Direction
308 317 323 328 328 335 315 310 314 316 312 312 310 319 320 318 313 312 311 314 317 317 318 317 316 316 322 285 259 289 295 298 325 323 246 232 233 238 242 238 245 244 248 249 254 260 268
296 295 296 307 312 318 320 318 317 319 316 318 310 308 313 312 314 312 312 315 317 315 314 311 307 306 301 265 291 299 293 277 283 269 264 234 233 242 250 253 248 255 251 252 255 254 265
301 307 304 287 289 300 305 305 305 308 310 311 310 309 301 306 310 311 314 314 316 314 310 303 299 297 259 252 266 275 276 268 267 272 282 250 242 249 250 253 257 254 268 273 259 246 252
279 289 293 295 290 282 283 297 302 302 297 301 309 303 307 302 307 311 313 313 315 311 308 298 294 278 257 291 278 275 278 267 254 257 260 270 278 287 284 267 267 259 258 258 253 250 247
288 281 288 297 302 298 290 279 296 301 309 298 302 301 307 306 304 311 313 314 314 312 310 302 287 220 269 292 248 284 281 265 251 252 244 259 260 275 281 262 259 253 252 248 248 248 249
292 292 291 278 289 296 306 283 285 300 307 305 305 302 303 310 309 316 322 323 314 289 293 282 257 262 245 243 313 300 279 284 248 239 239 242 230 233 241 246 233 237 240 244 263 251 230
299 301 298 293 284 292 291 294 294 296 304 301 299 310 303 308 314 327 343 358 12 220 268 253 256 246 279 267 301 284 274 249 246 236 231 212 228 215 229 233 249 253 264 273 245 234 245
292 298 298 293 286 284 284 285 292 294 301 296 303 302 307 309 317 331 333 317 342 309 298 277 261 263 263 270 273 255 260 241 233 246 240 208 231 222 261 249 240 249 263 268 273 266 248
284 291 294 295 293 301 277 283 295 289 293 307 296 292 304 312 317 335 320 304 315 319 275 294 235 243 241 245 253 265 227 231 252 246 253 244 263 227 254 257 243 241 243 255 267 279 285
291 283 288 290 291 297 289 282 279 282 290 303 291 296 300 311 308 317 302 331 320 317 283 188 192 187 199 235 243 278 213 216 151 272 269 279 272 240 257 276 240 247 241 255 258 265 260
284 282 281 284 287 290 288 285 283 280 290 297 283 289 297 296 292 299 314 329 312 302 289 151 134 138 181 234 320 125 196 205 219 194 169 232 306 223 241 261 241 255 266 291 267 252 264
282 285 285 283 287 293 293 285 284 279 278 280 278 288 283 286 287 303 289 303 294 230 241 160 148 178 198 215 221 130 186 220 217 260 234 255 242 294 250 263 287 254 253 273 273 259 241
286 276 279 285 287 289 285 281 277 274 268 272 273 287 272 268 261 292 269 283 222 237 167 209 174 176 260 278 283 170 175 196 205 203 248 287 252 226 261 285 283 255 211 243 236 235 241
289 283 283 284 285 286 283 278 279 275 269 269 268 277 272 260 260 274 267 246 242 247 222 315 155 286 286 287 276 179 185 216 212 216 290 299 262 210 248 227 231 273 214 232 199 218 229
292 291 287 285 286 288 280 279 280 284 268 261 277 275 266 254 237 231 238 216 231 229 269 287 257 280 271 257 186 274 210 233 220 200 213 300 267 184 218 252 255 250 221 248 252 308 284
289 289 287 288 288 288 282 278 278 269 280 261 272 267 264 240 229 224 231 233 234 266 296 308 258 288 286 286 157 322 155 172 176 309 215 295 285 228 223 230 262 261 219 248 220 247 235
288 288 289 289 288 285 282 279 280 261 262 269 257 261 257 224 209 212 226 227 236 269 281 267 257 266 277 275 294 287 26 33 34 10 275 251 224 183 30 225 230 253 231 244 264 243 216
289 290 290 291 290 285 282 277 276 269 256 241 244 233 259 187 190 209 228 227 252 268 272 259 272 286 289 300 297 294 293 139 154 25 321 306 249 253 257 262 244 217 251 227 247 223 255
288 289 288 287 283 281 279 273 268 252 251 248 222 230 256 206 202 221 230 235 246 260 257 256 268 240 255 266 272 271 275 142 166 135 17 348 253 262 293 224 230 234 219 244 254 288 253
291 289 289 285 280 276 275 274 260 252 247 247 256 221 238 219 236 248 229 230 241 240 250 269 261 270 266 248 251 242 253 162 181 148 154 323 265 271 257 307 318 217 209 223 229 218 214
288 287 284 284 285 275 269 274 245 239 237 225 235 234 240 211 219 238 252 267 246 240 226 239 251 259 257 252 247 268 260 257 196 174 162 100 277 329 298 307 293 276 243 211 233 231 220
279 279 280 280 280 274 265 255 250 254 211 221 216 228 264 271 270 238 233 248 255 252 257 244 233 238 245 252 257 254 272 276 308 191 163 162 289 330 295 283 267 286 252 209 245 231 260
280 280 276 275 275 268 261 250 241 228 221 221 230 257 284 283 294 247 244 242 241 256 252 263 234 278 287 296 302 292 267 245 273 266 246 226 1 339 288 328 265 256 213 228 250 233 220
283 281 277 273 268 263 255 245 238 227 223 223 226 231 245 259 263 260 257 250 264 261 262 263 282 272 298 295 264 259 279 276 235 238 249 256 175 253 285 311 214 345 324 309 84 16 36
284 280 277 272 267 254 245 243 233 228 223 224 229 226 230 253 258 266 265 273 256 268 266 255 268 293 264 272 329 285 249 242 244 236 233 219 219 271 284 300 307 359 318 3 201 131 295
284 280 276 274 274 271 244 236 232 225 224 226 226 223 235 271 247 256 268 268 254 248 257 243 271 159 21 41 329 252 242 212 202 204 210 203 203 201 228 264 266 252 84 60 42 73 331
283 279 274 270 269 266 261 231 228 224 221 221 226 223 229 246 254 269 288 306 287 265 261 282 168 134 162 214 249 263 252 249 236 194 177 188 187 214 227 275 269 330 156 150 138 141 324
278 275 270 263 261 256 254 244 225 223 219 218 224 217 217 243 259 262 275 276 295 276 259 356 150 163 166 174 255 248 254 264 287 191 176 181 182 190 225 225 238 124 261 95 112 120 63
275 271 265 258 252 253 248 240 233 219 216 213 219 222 218 223 247 279 263 262 270 275 325 276 332 86 249 236 249 308 280 190 277 225 175 193 199 170 192 214 91 80 90 75 80 76 54